Location: Heathcote
(40.9845°N, 73.7746°W)
Time: 14:38:55
(UTC+00:00)

Daily predictions for brighter satellites

Satellite Brightness Start Highest point End
(mag) Time Altitude Azimuth Time Altitude Azimuth Time Altitude Azimuth
Cosmos 1726 Rocket 3.5 22:14:49 10° S 22:19:06 67° E 22:23:28 10° NNE
Okean O Rocket 1.5 22:14:55 10° SSE 22:19:15 75° ENE 22:23:36 10° N
SL-4 R/B 3.7 22:17:43 10° NNW 22:19:57 16° N 22:22:15 10° NE
Cosmos 44 4.0 22:16:22 10° SW 22:20:43 52° NW 22:25:22 10° NNE
Cosmos 1346 Rocket 4.4 22:19:40 10° NNE 22:22:09 16° ENE 22:24:39 10° ESE
Cosmos 2058 4.4 22:22:29 10° NNE 22:25:09 17° ENE 22:27:48 10° ESE
BREEZE-M R/B 4.4 22:23:41 10° NW 22:26:51 28° NNE 22:32:20 10° ENE
Cosmos 1758 Rocket 4.3 22:22:46 10° NNW 22:27:05 59° W 22:31:20 10° S
Atlas Centaur 2 4.1 22:22:05 10° SW 22:29:13 36° S 22:36:48 10° ESE
NOAA 11 4.3 22:24:57 10° SSE 22:30:14 56° ENE 22:35:33 10° N
YAOGAN 6 3.6 22:27:23 10° S 22:30:57 53° W 22:34:35 10° NNW
Cosmos 1315 Rocket 4.2 22:28:34 10° SE 22:31:20 18° E 22:34:08 10° NE
Cosmos 1606 Rocket 4.2 22:31:21 10° SSW 22:35:40 61° W 22:40:03 10° N
Aureole 3 2.6 22:33:58 10° S 22:37:03 58° E 22:39:59 10° NNE
CORIOLIS 4.3 22:33:10 10° SSE 22:38:30 84° WSW 22:43:55 10° NNW
Cosmos 1980 Rocket 3.4 22:36:41 10° SE 22:40:42 20° E 22:44:42 10° NE
Cosmos 1455 3.4 22:37:52 10° SE 22:40:49 22° E 22:43:47 10° NE
USA 305 4.0 22:40:04 10° NW 22:43:50 28° NNE 22:46:41 15° E
Cosmos 2297 Rocket 2.2 22:39:30 10° NNW 22:45:10 67° ENE 22:50:47 10° SSE
CZ-2C R/B 4.1 22:40:33 10° SE 22:45:24 29° ENE 22:50:08 10° N
In-Cosmos 22 Rocket 4.2 22:41:41 10° N 22:47:01 59° ENE 22:52:25 10° SSE
SKYMED 2 3.6 22:45:24 10° NNE 22:49:41 55° E 22:53:56 10° S
USA 306 3.9 22:46:35 10° NW 22:50:23 30° NNE 22:52:55 17° E
Okean-O 3.1 22:52:50 10° SE 22:56:54 37° ENE 23:00:59 10° N
Meteor 2-10 Rocket 3.6 22:52:15 10° S 22:57:22 51° E 23:02:20 10° NNE
SeaSat 1 4.2 23:00:01 13° NE 23:00:23 13° NE 23:02:41 10° NNE
Cosmos 1553 Rocket 4.0 22:55:43 10° S 23:02:02 77° E 23:08:19 10° N
Cosmos 1689 Rocket 1.8 22:59:58 10° NNE 23:02:51 75° E 23:05:42 10° S
Cosmos 1408 3.0 22:59:46 10° N 23:03:13 37° ENE 23:06:39 10° SSE
Meteor 2-15 4.4 22:57:48 10° S 23:03:51 64° E 23:09:55 10° NNE
Cosmos 2360 4.4 22:58:58 10° S 23:04:25 48° ESE 23:09:54 10° NE
H-2A R/B 3.0 23:00:01 10° SE 23:04:35 29° ENE 23:09:11 10° N
MOS 1 Rocket 4.1 23:04:07 10° NNE 23:08:23 31° E 23:12:52 10° SSE
Cosmos 44 Rocket 3.4 23:08:27 10° SSW 23:13:03 53° ESE 23:16:15 20° NE
Cosmos 2058 Rocket 4.1 23:09:49 10° SSW 23:14:09 48° W 23:18:32 10° N
Cosmos 2278 4.1 23:09:07 10° S 23:14:24 42° ESE 23:18:42 15° NE
Lacrosse 5 3.9 23:13:22 10° NNW 23:15:54 14° N 23:17:47 12° NNE
Cosmos 2219 3.8 23:13:23 10° NNW 23:19:05 61° WSW 23:24:43 10° S
Cosmos 1892 2.9 23:18:02 10° NNW 23:21:56 75° W 23:25:47 10° S
Cosmos 1939 Rocket 3.3 23:18:54 10° S 23:22:50 63° W 23:26:43 10° NNW
ARGOS 3.9 23:21:55 28° E 23:23:04 31° ENE 23:27:45 10° N
Cosmos 1076 Rocket 3.5 23:20:57 10° N 23:25:08 55° E 23:29:18 10° SSE
Cosmos 968 Rocket 3.6 23:20:39 10° NNW 23:25:52 78° WSW 23:30:59 10° SSE
Cosmos 2082 3.7 23:20:31 10° NNW 23:26:14 66° ENE 23:31:55 10° SSE
CZ-4B R/B 4.3 23:24:58 10° NNW 23:27:05 17° WNW 23:29:10 10° WSW
Cosmos 1745 Rocket 3.9 23:25:13 10° N 23:31:34 85° E 23:37:56 10° S
NOSS 3-3 (A) 4.1 23:26:38 10° SW 23:32:22 72° NW 23:38:33 11° NNE
NOSS 3-3 (C) 4.1 23:26:45 10° SW 23:32:29 73° NW 23:38:37 12° NNE
USA 307 3.0 23:30:14 10° NW 23:34:28 55° NE 23:35:04 50° ENE
Cosmos 1825 2.0 23:33:08 10° N 23:36:55 65° E 23:37:06 63° ESE
COSMO-SKYMED 1 3.8 23:33:34 10° N 23:37:40 42° WNW 23:41:46 10° SW
Cosmos 2369 3.8 23:33:10 10° SSW 23:38:52 80° WNW 23:44:37 10° NNE
USA 308 2.9 23:35:12 10° NW 23:39:27 60° NE 23:39:51 57° ENE
GPS 2-04 Rocket1 3.7 23:37:13 10° WSW 23:40:55 34° S 23:41:13 34° SSE
Helios 1A Rocket 3.4 23:37:22 10° S 23:41:26 61° WSW 23:45:31 10° NNW
CSL-04 Rocket 3.6 23:39:12 10° SSE 23:44:40 63° ENE 23:50:07 10° N
OAO 2 Rocket 4.0 23:41:09 10° WSW 23:45:50 41° S 23:46:58 36° SSE
CZ-2D R/B 4.4 23:42:14 10° S 23:45:53 44° W 23:49:33 10° NNW
YAOGAN 1 2.6 23:43:08 10° S 23:47:26 79° WSW 23:51:47 10° NNW
ATLAS 2AS CENTAUR R/B 3.4 23:40:48 10° NNW 23:47:34 35° NE 23:48:38 33° ENE
Cosmos 2227 Rocket 3.3 23:44:16 10° NW 23:49:37 44° WSW 23:54:56 10° S
Cosmos 2263 Rocket 3.3 23:46:30 10° N 23:50:16 28° NNE 23:50:16 28° NNE
CZ-4 R/B 1.9 23:47:44 10° S 23:51:33 54° W 23:55:20 10° NNW
Cosmos 1812 Rocket 3.9 23:50:01 10° SSW 23:54:22 64° W 23:58:43 10° N
